ASA68 PANC-PAJN

Flight info

Callsign ASA68
Flight time 1h 28m
Altitude 35000
Route DCT NOEND DCT CUSHI DCT
Aircraft B737/M-SDE2E3FGHIRWXY/LB1

Departure

Time 2026-04-15 21:58
Airport Ted Stevens Anchorage International Airport (PANC)

Arrival

Time 2026-04-15 23:27
Airport Juneau International Airport (PAJN)
Time Latitude Longitude Altitude Speed Heading
2026-04-15 21:38 61.17296 -149.95867 126 ft 0 kts 92°
2026-04-15 21:40 61.17296 -149.95878 126 ft 4 kts 94°
2026-04-15 21:41 61.17294 -149.95908 122 ft 4 kts 194°
2026-04-15 21:41 61.17273 -149.95939 126 ft 4 kts 210°
2026-04-15 21:41 61.17275 -149.95939 123 ft 1 kts 188°
2026-04-15 21:46 61.17256 -149.95944 124 ft 3 kts 187°
2026-04-15 21:46 61.17235 -149.95946 122 ft 3 kts 181°
2026-04-15 21:46 61.17215 -149.95947 122 ft 3 kts 179°
2026-04-15 21:47 61.17195 -149.95946 125 ft 3 kts 179°
2026-04-15 21:47 61.17171 -149.95945 122 ft 4 kts 179°
2026-04-15 21:47 61.17143 -149.95948 123 ft 4 kts 193°
2026-04-15 21:47 61.17125 -149.95989 125 ft 4 kts 249°
2026-04-15 21:48 61.17125 -149.96047 125 ft 4 kts 270°
2026-04-15 21:48 61.17125 -149.96104 137 ft 4 kts 270°
2026-04-15 21:48 61.17125 -149.96160 145 ft 4 kts 270°
2026-04-15 21:48 61.17125 -149.96214 145 ft 4 kts 270°
2026-04-15 21:49 61.17125 -149.96266 145 ft 4 kts 270°
2026-04-15 21:49 61.17125 -149.96317 145 ft 3 kts 270°
2026-04-15 21:49 61.17125 -149.96367 145 ft 3 kts 270°
2026-04-15 21:49 61.17126 -149.96415 145 ft 3 kts 270°
2026-04-15 21:50 61.17126 -149.96460 145 ft 3 kts 270°
2026-04-15 21:50 61.17126 -149.96505 144 ft 3 kts 270°
2026-04-15 21:50 61.17126 -149.96549 144 ft 3 kts 271°
2026-04-15 21:50 61.17127 -149.96591 144 ft 3 kts 271°
2026-04-15 21:51 61.17127 -149.96631 144 ft 3 kts 271°
2026-04-15 21:51 61.17127 -149.96670 144 ft 3 kts 271°
2026-04-15 21:51 61.17128 -149.96707 144 ft 3 kts 271°
2026-04-15 21:51 61.17125 -149.96743 144 ft 3 kts 254°
2026-04-15 21:52 61.17118 -149.96775 142 ft 2 kts 239°
2026-04-15 21:52 61.17112 -149.96790 142 ft 1 kts 229°
2026-04-15 21:52 61.17105 -149.96796 142 ft 1 kts 199°
2026-04-15 21:52 61.17093 -149.96800 140 ft 2 kts 190°
2026-04-15 21:53 61.17075 -149.96801 142 ft 3 kts 177°
2026-04-15 21:53 61.17054 -149.96803 143 ft 3 kts 182°
2026-04-15 21:53 61.17035 -149.96804 141 ft 3 kts 182°
2026-04-15 21:53 61.17015 -149.96806 142 ft 3 kts 182°
2026-04-15 21:54 61.16995 -149.96808 145 ft 4 kts 183°
2026-04-15 21:54 61.16962 -149.96812 142 ft 6 kts 183°
2026-04-15 21:54 61.16916 -149.96842 143 ft 8 kts 218°
2026-04-15 21:54 61.16895 -149.96943 143 ft 8 kts 249°
2026-04-15 21:55 61.16881 -149.97019 144 ft 0 kts 249°
2026-04-15 21:55 61.16880 -149.97026 144 ft 1 kts 249°
2026-04-15 21:55 61.16875 -149.97050 142 ft 2 kts 249°
2026-04-15 21:55 61.16868 -149.97091 143 ft 4 kts 249°
2026-04-15 21:56 61.16858 -149.97146 143 ft 4 kts 250°
2026-04-15 21:56 61.16845 -149.97205 143 ft 4 kts 245°
2026-04-15 21:56 61.16830 -149.97261 142 ft 4 kts 236°
2026-04-15 21:56 61.16813 -149.97314 144 ft 5 kts 236°
2026-04-15 21:57 61.16792 -149.97385 144 ft 7 kts 246°
2026-04-15 21:57 61.16788 -149.97434 142 ft 0 kts 268°
2026-04-15 21:57 61.16787 -149.97539 143 ft 32 kts 270°
2026-04-15 21:57 61.16787 -149.98507 142 ft 101 kts 270°
2026-04-15 21:58 61.16788 -150.00345 144 ft 154 kts 272°
2026-04-15 21:58 61.16817 -150.02773 516 ft 174 kts 272°
2026-04-15 21:58 61.16802 -150.05265 1398 ft 174 kts 267°
2026-04-15 21:58 61.16774 -150.07777 2230 ft 175 kts 268°
2026-04-15 21:59 61.16772 -150.10287 3004 ft 177 kts 268°
2026-04-15 21:59 61.16785 -150.12886 3635 ft 191 kts 268°
2026-04-15 21:59 61.16808 -150.15785 3742 ft 207 kts 268°
2026-04-15 21:59 61.16833 -150.18856 3922 ft 216 kts 268°
2026-04-15 22:00 61.16859 -150.21965 3991 ft 217 kts 266°
2026-04-15 22:00 61.16617 -150.25035 4018 ft 216 kts 252°
2026-04-15 22:00 61.16010 -150.27880 4033 ft 221 kts 235°
2026-04-15 22:00 61.15166 -150.30659 4003 ft 232 kts 235°
2026-04-15 22:01 61.14298 -150.33504 4011 ft 235 kts 235°
2026-04-15 22:01 61.13432 -150.36321 3998 ft 234 kts 233°
2026-04-15 22:01 61.12238 -150.38494 3995 ft 227 kts 203°
2026-04-15 22:01 61.10775 -150.39613 4001 ft 225 kts 197°
2026-04-15 22:02 61.09777 -150.40277 3998 ft 224 kts 197°
2026-04-15 22:02 61.08261 -150.40863 3984 ft 223 kts 172°
2026-04-15 22:02 61.06907 -150.39412 4026 ft 229 kts 133°
2026-04-15 22:02 61.06138 -150.36373 4430 ft 249 kts 108°
2026-04-15 22:03 61.05946 -150.32770 5212 ft 259 kts 92°
2026-04-15 22:03 61.06070 -150.28962 5969 ft 269 kts 88°
2026-04-15 22:03 61.06271 -150.25062 6784 ft 276 kts 86°
2026-04-15 22:03 61.06487 -150.21073 7632 ft 283 kts 86°
2026-04-15 22:04 61.06701 -150.16987 8553 ft 289 kts 85°
2026-04-15 22:04 61.06913 -150.12791 9470 ft 297 kts 85°
2026-04-15 22:04 61.07118 -150.08549 10302 ft 306 kts 85°
2026-04-15 22:04 61.07329 -150.04017 10773 ft 326 kts 85°
2026-04-15 22:05 61.07544 -149.99268 11502 ft 336 kts 85°
2026-04-15 22:05 61.07760 -149.94399 12380 ft 342 kts 85°
2026-04-15 22:05 61.07976 -149.89446 13283 ft 348 kts 85°
2026-04-15 22:05 61.08191 -149.84420 14134 ft 354 kts 85°
2026-04-15 22:06 61.08407 -149.79328 14987 ft 359 kts 85°
2026-04-15 22:06 61.08623 -149.74159 15913 ft 363 kts 85°
2026-04-15 22:06 61.08838 -149.68947 16813 ft 367 kts 85°
2026-04-15 22:06 61.09055 -149.63649 17671 ft 372 kts 85°
2026-04-15 22:07 61.09270 -149.58321 18476 ft 378 kts 85°
2026-04-15 22:07 61.09489 -149.52851 19145 ft 386 kts 85°
2026-04-15 22:07 61.09710 -149.47287 19769 ft 394 kts 85°
2026-04-15 22:07 61.09935 -149.41563 20410 ft 402 kts 85°
2026-04-15 22:08 61.10161 -149.35730 21065 ft 410 kts 85°
2026-04-15 22:08 61.10389 -149.29785 21700 ft 418 kts 85°
2026-04-15 22:08 61.10617 -149.23794 22328 ft 426 kts 85°
2026-04-15 22:08 61.10849 -149.17608 23032 ft 433 kts 84°
2026-04-15 22:09 61.11081 -149.11354 23677 ft 440 kts 84°
2026-04-15 22:09 61.11312 -149.05013 24250 ft 446 kts 84°
2026-04-15 22:09 61.11545 -148.98552 24814 ft 452 kts 84°
2026-04-15 22:09 61.11777 -148.92023 25447 ft 457 kts 84°
2026-04-15 22:10 61.12008 -148.85410 26010 ft 462 kts 84°
2026-04-15 22:10 61.12239 -148.78739 26568 ft 468 kts 84°
2026-04-15 22:10 61.12465 -148.72099 27111 ft 473 kts 84°
2026-04-15 22:10 61.12698 -148.65218 27658 ft 478 kts 84°
2026-04-15 22:11 61.12926 -148.58342 28227 ft 483 kts 84°
2026-04-15 22:11 61.13090 -148.51353 28733 ft 489 kts 90°
2026-04-15 22:11 61.12833 -148.44299 29262 ft 494 kts 99°
2026-04-15 22:11 61.12070 -148.37342 29741 ft 498 kts 108°
2026-04-15 22:12 61.11051 -148.30476 30254 ft 498 kts 110°
2026-04-15 22:12 61.09982 -148.23706 30909 ft 494 kts 111°
2026-04-15 22:12 61.08899 -148.16954 31604 ft 490 kts 110°
2026-04-15 22:12 61.07849 -148.10370 32219 ft 489 kts 110°
2026-04-15 22:13 61.06797 -148.03709 32772 ft 488 kts 110°
2026-04-15 22:13 61.05752 -147.97021 33317 ft 487 kts 110°
2026-04-15 22:13 61.04721 -147.90377 33851 ft 486 kts 110°
2026-04-15 22:13 61.03692 -147.83732 34410 ft 483 kts 109°
2026-04-15 22:14 61.02676 -147.77172 34844 ft 479 kts 109°
2026-04-15 22:14 61.01656 -147.70613 34977 ft 480 kts 109°
2026-04-15 22:14 61.00628 -147.64031 34971 ft 481 kts 109°
2026-04-15 22:15 60.98588 -147.51044 34988 ft 478 kts 109°
2026-04-15 22:15 60.96527 -147.38039 34992 ft 477 kts 109°
2026-04-15 22:16 60.94455 -147.25061 34994 ft 477 kts 109°
2026-04-15 22:16 60.92366 -147.12077 34995 ft 477 kts 109°
2026-04-15 22:17 60.90282 -146.99212 34996 ft 477 kts 109°
2026-04-15 22:17 60.88175 -146.86294 35000 ft 478 kts 109°
2026-04-15 22:18 60.86045 -146.73334 34999 ft 478 kts 110°
2026-04-15 22:18 60.83916 -146.60470 34997 ft 479 kts 110°
2026-04-15 22:19 60.81756 -146.47513 34998 ft 479 kts 110°
2026-04-15 22:19 60.79591 -146.34613 34999 ft 478 kts 110°
2026-04-15 22:20 60.77415 -146.21742 35000 ft 478 kts 110°
2026-04-15 22:20 60.75239 -146.08963 34991 ft 478 kts 110°
2026-04-15 22:21 60.73038 -145.96125 35000 ft 478 kts 110°
2026-04-15 22:21 60.70827 -145.83314 34982 ft 477 kts 110°
2026-04-15 22:22 60.68607 -145.70542 34987 ft 477 kts 110°
2026-04-15 22:22 60.66387 -145.57859 34996 ft 476 kts 110°
2026-04-15 22:23 60.64144 -145.45129 34998 ft 476 kts 110°
2026-04-15 22:23 60.61908 -145.32520 34994 ft 475 kts 110°
2026-04-15 22:24 60.59642 -145.19835 34992 ft 475 kts 110°
2026-04-15 22:24 60.57365 -145.07167 34990 ft 476 kts 110°
2026-04-15 22:25 60.55081 -144.94553 34982 ft 475 kts 110°
2026-04-15 22:25 60.52799 -144.82026 34982 ft 475 kts 110°
2026-04-15 22:26 60.50484 -144.69400 34990 ft 475 kts 110°
2026-04-15 22:26 60.48166 -144.56839 34989 ft 475 kts 110°
2026-04-15 22:27 60.45836 -144.44299 34991 ft 474 kts 110°
2026-04-15 22:27 60.43513 -144.31874 34990 ft 474 kts 110°
2026-04-15 22:28 60.41170 -144.19425 34989 ft 473 kts 110°
2026-04-15 22:28 60.38813 -144.06981 35001 ft 472 kts 110°
2026-04-15 22:29 60.36454 -143.94603 35002 ft 471 kts 110°
2026-04-15 22:29 60.34085 -143.82249 35001 ft 471 kts 111°
2026-04-15 22:30 60.31719 -143.69989 35005 ft 471 kts 110°
2026-04-15 22:30 60.29331 -143.57696 35002 ft 471 kts 111°
2026-04-15 22:31 60.26930 -143.45406 35002 ft 470 kts 111°
2026-04-15 22:31 60.24522 -143.33162 35006 ft 470 kts 111°
2026-04-15 22:32 60.22116 -143.20998 35009 ft 469 kts 111°
2026-04-15 22:32 60.19685 -143.08788 35011 ft 469 kts 111°
2026-04-15 22:33 60.17249 -142.96622 35007 ft 469 kts 111°
2026-04-15 22:33 60.14821 -142.84571 35003 ft 468 kts 111°
2026-04-15 22:34 60.12371 -142.72481 35006 ft 467 kts 111°
2026-04-15 22:34 60.09911 -142.60414 35007 ft 467 kts 111°
2026-04-15 22:35 60.07447 -142.48405 35011 ft 466 kts 111°
2026-04-15 22:35 60.04972 -142.36407 35010 ft 465 kts 111°
2026-04-15 22:36 60.02489 -142.24445 35012 ft 464 kts 111°
2026-04-15 22:36 60.00017 -142.12602 35013 ft 464 kts 111°
2026-04-15 22:37 59.97523 -142.00721 35019 ft 463 kts 111°
2026-04-15 22:37 59.95014 -141.88841 35017 ft 463 kts 111°
2026-04-15 22:38 59.93303 -141.80776 35021 ft 463 kts 111°
2026-04-15 22:38 59.90787 -141.68977 35017 ft 462 kts 111°
2026-04-15 22:39 59.88280 -141.57287 35020 ft 462 kts 111°
2026-04-15 22:39 59.85744 -141.45526 35013 ft 461 kts 111°
2026-04-15 22:40 59.83204 -141.33814 35020 ft 460 kts 111°
2026-04-15 22:40 59.80672 -141.22204 35013 ft 460 kts 111°
2026-04-15 22:41 59.76826 -141.04721 35017 ft 459 kts 111°
2026-04-15 22:41 59.74258 -140.93150 35022 ft 458 kts 111°
2026-04-15 22:42 59.71697 -140.81641 35018 ft 457 kts 111°
2026-04-15 22:42 59.69125 -140.70131 35027 ft 457 kts 111°
2026-04-15 22:43 59.66545 -140.58650 35021 ft 456 kts 112°
2026-04-15 22:43 59.63948 -140.47160 35026 ft 456 kts 112°
2026-04-15 22:44 59.61367 -140.35802 35020 ft 455 kts 112°
2026-04-15 22:44 59.58766 -140.24413 35029 ft 454 kts 112°
2026-04-15 22:45 59.56154 -140.13041 35023 ft 454 kts 112°
2026-04-15 22:45 59.53542 -140.01726 35024 ft 453 kts 112°
2026-04-15 22:46 59.50937 -139.90504 35022 ft 452 kts 112°
2026-04-15 22:46 59.48321 -139.79290 35026 ft 451 kts 112°
2026-04-15 22:47 59.45693 -139.68086 35020 ft 450 kts 112°
2026-04-15 22:47 59.43063 -139.56931 35028 ft 449 kts 112°
2026-04-15 22:48 59.40446 -139.45885 35021 ft 448 kts 112°
2026-04-15 22:48 59.37806 -139.34804 35026 ft 447 kts 112°
2026-04-15 22:49 59.35609 -139.25621 35031 ft 446 kts 112°
2026-04-15 22:49 59.32961 -139.14609 35036 ft 445 kts 112°
2026-04-15 22:50 59.30326 -139.03703 35038 ft 445 kts 112°
2026-04-15 22:50 59.27673 -138.92776 35052 ft 444 kts 112°
2026-04-15 22:51 59.25014 -138.81882 35046 ft 443 kts 113°
2026-04-15 22:51 59.22350 -138.71019 35056 ft 443 kts 113°
2026-04-15 22:52 59.19682 -138.60196 35050 ft 442 kts 113°
2026-04-15 22:52 59.17006 -138.49391 35051 ft 439 kts 113°
2026-04-15 22:53 59.15700 -138.44143 34823 ft 433 kts 113°
2026-04-15 22:53 59.14385 -138.38870 34333 ft 433 kts 113°
2026-04-15 22:53 59.13058 -138.33556 33670 ft 436 kts 113°
2026-04-15 22:53 59.11730 -138.28247 33045 ft 438 kts 113°
2026-04-15 22:54 59.10391 -138.22907 32459 ft 437 kts 113°
2026-04-15 22:54 59.09053 -138.17591 31918 ft 436 kts 113°
2026-04-15 22:54 59.07719 -138.12304 31372 ft 434 kts 113°
2026-04-15 22:54 59.06399 -138.07073 29963 ft 444 kts 116°
2026-04-15 22:55 59.05009 -138.01585 28729 ft 460 kts 116°
2026-04-15 22:55 59.03581 -137.95964 27718 ft 468 kts 117°
2026-04-15 22:55 59.02129 -137.90262 26795 ft 472 kts 117°
2026-04-15 22:55 59.00666 -137.84532 25953 ft 472 kts 117°
2026-04-15 22:56 58.99214 -137.78856 25273 ft 468 kts 117°
2026-04-15 22:56 58.97780 -137.73267 24741 ft 460 kts 118°
2026-04-15 22:56 58.96357 -137.67729 24235 ft 452 kts 118°
2026-04-15 22:56 58.94959 -137.62304 23707 ft 445 kts 118°
2026-04-15 22:57 58.93605 -137.57065 23043 ft 440 kts 118°
2026-04-15 22:57 58.92238 -137.51794 22396 ft 435 kts 118°
2026-04-15 22:57 58.90881 -137.46572 21675 ft 432 kts 119°
2026-04-15 22:57 58.89543 -137.41436 20987 ft 428 kts 118°
2026-04-15 22:58 58.88207 -137.36319 20565 ft 417 kts 118°
2026-04-15 22:58 58.86929 -137.31426 20475 ft 398 kts 118°
2026-04-15 22:58 58.85701 -137.26741 20374 ft 383 kts 119°
2026-04-15 22:58 58.84517 -137.22232 20215 ft 370 kts 119°
2026-04-15 22:59 58.83363 -137.17851 19878 ft 365 kts 119°
2026-04-15 22:59 58.82210 -137.13489 19512 ft 362 kts 119°
2026-04-15 22:59 58.81066 -137.09163 19096 ft 361 kts 118°
2026-04-15 22:59 58.79930 -137.04878 18676 ft 358 kts 118°
2026-04-15 23:00 58.78801 -137.00627 18308 ft 355 kts 118°
2026-04-15 23:00 58.77694 -136.96459 17879 ft 351 kts 118°
2026-04-15 23:00 58.76577 -136.92260 17428 ft 347 kts 119°
2026-04-15 23:00 58.75474 -136.88122 16966 ft 344 kts 119°
2026-04-15 23:01 58.74403 -136.84115 16557 ft 340 kts 119°
2026-04-15 23:01 58.73322 -136.80077 16153 ft 336 kts 119°
2026-04-15 23:01 58.72257 -136.76101 15760 ft 333 kts 119°
2026-04-15 23:01 58.71200 -136.72167 15354 ft 330 kts 120°
2026-04-15 23:02 58.70146 -136.68247 14964 ft 326 kts 120°
2026-04-15 23:02 58.69107 -136.64394 14557 ft 323 kts 120°
2026-04-15 23:02 58.68080 -136.60591 14162 ft 320 kts 120°
2026-04-15 23:02 58.67073 -136.56864 13854 ft 315 kts 120°
2026-04-15 23:03 58.66080 -136.53196 13692 ft 304 kts 120°
2026-04-15 23:03 58.65108 -136.49612 13320 ft 301 kts 120°
2026-04-15 23:03 58.64141 -136.46054 12897 ft 299 kts 120°
2026-04-15 23:03 58.63180 -136.42527 12471 ft 298 kts 120°
2026-04-15 23:04 58.62222 -136.39014 12076 ft 296 kts 120°
2026-04-15 23:04 58.61267 -136.35516 11712 ft 294 kts 120°
2026-04-15 23:04 58.60320 -136.32051 11342 ft 291 kts 120°
2026-04-15 23:04 58.59381 -136.28625 10944 ft 289 kts 121°
2026-04-15 23:05 58.58448 -136.25220 10600 ft 287 kts 121°
2026-04-15 23:05 58.57540 -136.21909 10491 ft 272 kts 121°
2026-04-15 23:05 58.56693 -136.18819 10400 ft 253 kts 121°
2026-04-15 23:05 58.55894 -136.15911 10248 ft 241 kts 121°
2026-04-15 23:06 58.55117 -136.13095 9862 ft 237 kts 121°
2026-04-15 23:06 58.54366 -136.10379 9394 ft 237 kts 121°
2026-04-15 23:06 58.53592 -136.07584 8970 ft 234 kts 121°
2026-04-15 23:06 58.52828 -136.04825 8546 ft 232 kts 121°
2026-04-15 23:07 58.52082 -136.02135 8134 ft 230 kts 121°
2026-04-15 23:07 58.51327 -135.99415 7714 ft 228 kts 121°
2026-04-15 23:07 58.50586 -135.96745 7317 ft 225 kts 122°
2026-04-15 23:07 58.49852 -135.94102 6884 ft 224 kts 122°
2026-04-15 23:08 58.49127 -135.91501 6447 ft 223 kts 122°
2026-04-15 23:08 58.48399 -135.88889 5980 ft 222 kts 122°
2026-04-15 23:08 58.47677 -135.86300 5526 ft 221 kts 122°
2026-04-15 23:08 58.46957 -135.83729 5125 ft 217 kts 122°
2026-04-15 23:09 58.46247 -135.81182 4675 ft 217 kts 121°
2026-04-15 23:09 58.45541 -135.78655 4262 ft 214 kts 122°
2026-04-15 23:09 58.44846 -135.76170 3843 ft 213 kts 121°
2026-04-15 23:09 58.44151 -135.73691 3459 ft 210 kts 122°
2026-04-15 23:10 58.43491 -135.71337 3404 ft 194 kts 123°
2026-04-15 23:10 58.42867 -135.69115 3393 ft 186 kts 123°
2026-04-15 23:10 58.42253 -135.66939 3407 ft 188 kts 123°
2026-04-15 23:10 58.41624 -135.64716 3428 ft 191 kts 122°
2026-04-15 23:11 58.40988 -135.62452 3422 ft 195 kts 122°
2026-04-15 23:11 58.40350 -135.60184 3400 ft 192 kts 123°
2026-04-15 23:11 58.39727 -135.57974 3397 ft 187 kts 123°
2026-04-15 23:11 58.39109 -135.55783 3411 ft 191 kts 123°
2026-04-15 23:12 58.38475 -135.53546 3410 ft 192 kts 122°
2026-04-15 23:12 58.37844 -135.51325 3401 ft 191 kts 123°
2026-04-15 23:12 58.37213 -135.49101 3404 ft 191 kts 122°
2026-04-15 23:12 58.36670 -135.46791 3384 ft 194 kts 104°
2026-04-15 23:13 58.36471 -135.44265 3400 ft 193 kts 111°
2026-04-15 23:13 58.35850 -135.42056 3395 ft 188 kts 137°
2026-04-15 23:13 58.34836 -135.40551 3415 ft 184 kts 153°
2026-04-15 23:13 58.33690 -135.39419 3419 ft 187 kts 157°
2026-04-15 23:14 58.32518 -135.38293 3402 ft 187 kts 156°
2026-04-15 23:14 58.31383 -135.37193 3396 ft 183 kts 156°
2026-04-15 23:14 58.30250 -135.36095 3390 ft 184 kts 157°
2026-04-15 23:14 58.29093 -135.35026 3400 ft 185 kts 161°
2026-04-15 23:15 58.27903 -135.34081 3396 ft 186 kts 161°
2026-04-15 23:15 58.26712 -135.33142 3394 ft 185 kts 161°
2026-04-15 23:15 58.25520 -135.32190 3396 ft 186 kts 161°
2026-04-15 23:15 58.24326 -135.31228 3390 ft 185 kts 161°
2026-04-15 23:16 58.23145 -135.30271 3394 ft 184 kts 160°
2026-04-15 23:16 58.21970 -135.29317 3397 ft 183 kts 160°
2026-04-15 23:16 58.20747 -135.28329 3416 ft 197 kts 160°
2026-04-15 23:16 58.19495 -135.27263 3391 ft 197 kts 152°
2026-04-15 23:17 58.18779 -135.25938 3400 ft 198 kts 124°
2026-04-15 23:17 58.18457 -135.23548 3388 ft 203 kts 85°
2026-04-15 23:17 58.18899 -135.21062 3415 ft 202 kts 66°
2026-04-15 23:17 58.19480 -135.18618 3411 ft 204 kts 66°
2026-04-15 23:18 58.20065 -135.16158 3402 ft 205 kts 67°
2026-04-15 23:18 58.20650 -135.13686 3391 ft 205 kts 66°
2026-04-15 23:18 58.21235 -135.11215 3390 ft 205 kts 67°
2026-04-15 23:18 58.21816 -135.08749 3392 ft 205 kts 67°
2026-04-15 23:19 58.22460 -135.06340 3367 ft 206 kts 51°
2026-04-15 23:19 58.23619 -135.04870 3405 ft 201 kts 16°
2026-04-15 23:19 58.24988 -135.04301 3407 ft 202 kts
2026-04-15 23:19 58.26364 -135.03873 3393 ft 203 kts
2026-04-15 23:20 58.27761 -135.03440 3397 ft 204 kts
2026-04-15 23:20 58.29164 -135.02994 3387 ft 204 kts
2026-04-15 23:20 58.30564 -135.02541 3386 ft 203 kts
2026-04-15 23:20 58.31948 -135.02088 3385 ft 201 kts
2026-04-15 23:21 58.33291 -135.01645 3357 ft 186 kts
2026-04-15 23:21 58.34481 -135.01207 3364 ft 168 kts 17°
2026-04-15 23:21 58.35295 -134.99775 3355 ft 162 kts 72°
2026-04-15 23:21 58.35514 -134.97703 3130 ft 160 kts 82°
2026-04-15 23:22 58.35680 -134.95589 2837 ft 162 kts 86°
2026-04-15 23:22 58.35821 -134.93451 2736 ft 163 kts 87°
2026-04-15 23:22 58.35835 -134.91260 2698 ft 167 kts 91°
2026-04-15 23:22 58.35874 -134.89105 2720 ft 157 kts 91°
2026-04-15 23:23 58.35878 -134.86993 2697 ft 161 kts 93°
2026-04-15 23:23 58.35868 -134.84859 2670 ft 162 kts 93°
2026-04-15 23:23 58.35855 -134.82742 2440 ft 157 kts 93°
2026-04-15 23:23 58.35843 -134.80753 2252 ft 146 kts 93°
2026-04-15 23:24 58.35833 -134.78870 2053 ft 140 kts 92°
2026-04-15 23:24 58.35824 -134.77048 1882 ft 135 kts 91°
2026-04-15 23:24 58.35815 -134.75297 1714 ft 131 kts 92°
2026-04-15 23:24 58.35808 -134.73538 1544 ft 135 kts 91°
2026-04-15 23:25 58.35782 -134.71724 1393 ft 137 kts 95°
2026-04-15 23:25 58.35764 -134.69913 1274 ft 136 kts 92°
2026-04-15 23:25 58.35800 -134.68104 1122 ft 139 kts 90°
2026-04-15 23:25 58.35833 -134.66238 957 ft 144 kts 90°
2026-04-15 23:26 58.35865 -134.64346 698 ft 148 kts 90°
2026-04-15 23:26 58.35899 -134.62346 419 ft 152 kts 88°
2026-04-15 23:26 58.35858 -134.60354 151 ft 151 kts 99°
2026-04-15 23:26 58.35608 -134.58465 32 ft 140 kts 104°
2026-04-15 23:27 58.35426 -134.57132 32 ft 61 kts 105°
2026-04-15 23:27 58.35391 -134.56684 32 ft 4 kts 43°
2026-04-15 23:27 58.35429 -134.56673 31 ft 7 kts 356°
2026-04-15 23:27 58.35482 -134.56741 32 ft 12 kts 290°
2026-04-15 23:28 58.35509 -134.56926 33 ft 17 kts 285°
2026-04-15 23:28 58.35543 -134.57166 33 ft 21 kts 285°
2026-04-15 23:28 58.35584 -134.57453 33 ft 24 kts 285°
2026-04-15 23:28 58.35628 -134.57782 32 ft 27 kts 285°
2026-04-15 23:29 58.35659 -134.58001 31 ft 18 kts 285°
2026-04-15 23:29 58.35679 -134.58142 32 ft 0 kts 284°
2026-04-15 23:31 58.35682 -134.58164 33 ft 4 kts 284°
2026-04-15 23:31 58.35695 -134.58257 33 ft 10 kts 284°
2026-04-15 23:31 58.35716 -134.58415 31 ft 15 kts 285°
2026-04-15 23:31 58.35742 -134.58577 33 ft 7 kts 304°
2026-04-15 23:32 58.35787 -134.58647 31 ft 7 kts 326°
2026-04-15 23:32 58.35842 -134.58686 31 ft 7 kts 359°
2026-04-15 23:32 58.35877 -134.58686 33 ft 3 kts
2026-04-15 23:32 58.35882 -134.58686 33 ft 0 kts
2026-04-15 23:36 58.35657 -134.58787 36 ft 143 kts 105°
2026-04-15 23:36 58.35447 -134.57283 33 ft 65 kts 105°
2026-04-15 23:36 58.35398 -134.56933 33 ft 55 kts 105°
2026-04-15 23:36 58.35893 -134.62767 461 ft 152 kts 88°
2026-04-15 23:37 58.35884 -134.60760 207 ft 151 kts 96°
2026-04-15 23:37 58.35665 -134.58835 38 ft 144 kts 105°
2026-04-15 23:37 58.35448 -134.57293 33 ft 67 kts 105°
2026-04-15 23:37 58.35872 -134.63992 652 ft 149 kts 88°
2026-04-15 23:38 58.35903 -134.62020 381 ft 152 kts 89°
2026-04-15 23:38 58.35825 -134.60010 111 ft 150 kts 103°